Time,TemperatureF,DewpointF,PressureIn,WindDirection,WindDirectionDegrees,WindSpeedMPH,WindSpeedGustMPH,Humidity,HourlyPrecipIn,Conditions,Clouds,dailyrainin,SoftwareType,DateUTC
2013-07-11 00:01:00,70.0,64.0,30.06,East,101,0.0,0.0,82,0.00,,,0.00,,2013-07-11 05:01:00,
2013-07-11 00:12:00,70.0,65.0,30.06,East,101,0.0,0.0,84,0.00,,,0.00,,2013-07-11 05:12:00,
2013-07-11 00:22:00,69.0,64.0,30.07,East,101,0.0,0.0,85,0.00,,,0.00,,2013-07-11 05:22:00,
2013-07-11 00:32:00,69.0,65.0,30.08,East,101,0.0,0.0,86,0.00,,,0.00,,2013-07-11 05:32:00,
2013-07-11 00:43:00,68.0,64.0,30.08,East,101,0.0,0.0,86,0.00,,,0.00,,2013-07-11 05:43:00,
2013-07-11 00:52:00,68.0,64.0,30.08,East,101,0.0,0.0,88,0.00,,,0.00,,2013-07-11 05:52:00,
2013-07-11 01:01:00,67.0,63.0,30.08,East,101,0.0,1.0,88,0.00,,,0.00,,2013-07-11 06:01:00,
2013-07-11 01:11:00,66.0,63.0,30.09,East,101,1.0,2.0,90,0.00,,,0.00,,2013-07-11 06:11:00,
2013-07-11 01:22:00,66.0,63.0,30.09,East,101,0.0,1.0,90,0.00,,,0.00,,2013-07-11 06:22:00,
2013-07-11 01:32:00,66.0,64.0,30.09,East,101,0.0,0.0,92,0.00,,,0.00,,2013-07-11 06:32:00,
2013-07-11 01:43:00,66.0,64.0,30.09,East,101,0.0,0.0,92,0.00,,,0.00,,2013-07-11 06:43:00,
2013-07-11 01:52:00,65.0,63.0,30.09,East,101,0.0,0.0,92,0.00,,,0.00,,2013-07-11 06:52:00,
2013-07-11 02:01:00,65.0,63.0,30.09,ESE,105,2.0,2.0,93,0.00,,,0.00,,2013-07-11 07:01:00,
2013-07-11 02:12:00,65.0,63.0,30.09,ESE,105,0.0,2.0,94,0.00,,,0.00,,2013-07-11 07:12:00,
2013-07-11 02:22:00,65.0,63.0,30.09,ESE,105,0.0,2.0,92,0.00,,,0.00,,2013-07-11 07:22:00,
2013-07-11 02:32:00,64.0,62.0,30.09,ESE,105,0.0,0.0,93,0.00,,,0.00,,2013-07-11 07:32:00,
2013-07-11 02:45:00,64.0,62.0,30.08,ESE,104,0.0,3.0,93,0.00,,,0.00,,2013-07-11 07:45:00,
2013-07-11 02:53:00,65.0,63.0,30.08,ESE,108,2.0,3.0,94,0.00,,,0.00,,2013-07-11 07:53:00,
2013-07-11 03:02:00,65.0,63.0,30.08,East,95,3.0,5.0,93,0.00,,,0.00,,2013-07-11 08:02:00,
2013-07-11 03:11:00,65.0,63.0,30.08,East,98,3.0,6.0,93,0.00,,,0.00,,2013-07-11 08:11:00,
2013-07-11 03:22:00,66.0,64.0,30.07,ESE,105,5.0,7.0,92,0.00,,,0.00,,2013-07-11 08:22:00,
2013-07-11 03:34:00,66.0,63.0,30.06,ESE,110,2.0,6.0,91,0.00,,,0.00,,2013-07-11 08:34:00,
2013-07-11 03:43:00,66.0,63.0,30.06,ESE,108,4.0,6.0,91,0.00,,,0.00,,2013-07-11 08:43:00,
2013-07-11 03:53:00,66.0,63.0,30.05,ESE,104,5.0,8.0,91,0.00,,,0.00,,2013-07-11 08:53:00,
2013-07-11 04:02:00,67.0,64.0,30.05,East,87,6.0,8.0,90,0.00,,,0.00,,2013-07-11 09:02:00,
2013-07-11 04:12:00,67.0,64.0,30.05,East,80,6.0,8.0,89,0.00,,,0.00,,2013-07-11 09:12:00,
2013-07-11 04:21:00,67.0,63.0,30.05,East,84,4.0,11.0,88,0.00,,,0.00,,2013-07-11 09:21:00,
2013-07-11 04:33:00,67.0,63.0,30.05,East,85,5.0,7.0,86,0.00,,,0.00,,2013-07-11 09:33:00,
2013-07-11 04:43:00,67.0,63.0,30.06,East,94,5.0,8.0,86,0.00,,,0.00,,2013-07-11 09:43:00,
2013-07-11 04:53:00,67.0,63.0,30.05,East,91,4.0,7.0,86,0.00,,,0.00,,2013-07-11 09:53:00,
2013-07-11 05:01:00,66.0,62.0,30.05,ESE,105,5.0,9.0,86,0.00,,,0.00,,2013-07-11 10:01:00,
2013-07-11 05:11:00,66.0,62.0,30.05,East,84,5.0,8.0,86,0.00,,,0.00,,2013-07-11 10:11:00,
2013-07-11 05:21:00,66.0,61.0,30.05,East,96,4.0,9.0,85,0.00,,,0.00,,2013-07-11 10:21:00,
2013-07-11 05:33:00,66.0,61.0,30.06,ENE,76,4.0,8.0,84,0.00,,,0.00,,2013-07-11 10:33:00,
2013-07-11 05:42:00,66.0,61.0,30.06,East,91,3.0,6.0,84,0.00,,,0.00,,2013-07-11 10:42:00,
2013-07-11 05:52:00,66.0,61.0,30.06,East,98,4.0,7.0,84,0.00,,,0.00,,2013-07-11 10:52:00,
2013-07-11 06:02:00,66.0,61.0,30.06,SE,126,1.0,6.0,83,0.00,,,0.00,,2013-07-11 11:02:00,
2013-07-11 06:12:00,66.0,61.0,30.06,ESE,112,0.0,2.0,84,0.00,,,0.00,,2013-07-11 11:12:00,
2013-07-11 06:22:00,65.0,60.0,30.06,SE,134,0.0,3.0,84,0.00,,,0.00,,2013-07-11 11:22:00,
2013-07-11 06:32:00,65.0,60.0,30.07,SE,134,0.0,1.0,84,0.00,,,0.00,,2013-07-11 11:32:00,
2013-07-11 06:43:00,65.0,60.0,30.07,SE,134,2.0,4.0,84,0.00,,,0.00,,2013-07-11 11:43:00,
2013-07-11 06:53:00,65.0,60.0,30.08,SE,128,0.0,5.0,84,0.00,,,0.00,,2013-07-11 11:53:00,
2013-07-11 07:01:00,65.0,60.0,30.08,East,93,1.0,3.0,84,0.00,,,0.00,,2013-07-11 12:01:00,
2013-07-11 07:12:00,66.0,61.0,30.09,ESE,113,1.0,3.0,84,0.00,,,0.00,,2013-07-11 12:12:00,
2013-07-11 07:22:00,66.0,61.0,30.08,East,82,2.0,5.0,84,0.00,,,0.00,,2013-07-11 12:22:00,
2013-07-11 07:33:00,67.0,61.0,30.08,East,99,4.0,7.0,82,0.00,,,0.00,,2013-07-11 12:33:00,
2013-07-11 07:43:00,68.0,62.0,30.08,East,96,5.0,8.0,81,0.00,,,0.00,,2013-07-11 12:43:00,
2013-07-11 07:54:00,69.0,63.0,30.08,SE,130,4.0,9.0,80,0.00,,,0.00,,2013-07-11 12:54:00,
2013-07-11 08:02:00,71.0,63.0,30.09,SE,134,5.0,10.0,76,0.00,,,0.00,,2013-07-11 13:02:00,
2013-07-11 08:12:00,73.0,63.0,30.13,SW,235,7.0,10.0,71,0.00,,,0.00,,2013-07-11 13:12:00,
2013-07-11 08:22:00,73.0,63.0,30.13,SW,224,6.0,11.0,70,0.00,,,0.00,,2013-07-11 13:22:00,
2013-07-11 08:33:00,72.0,62.0,30.14,SW,216,6.0,11.0,72,0.00,,,0.00,,2013-07-11 13:33:00,
2013-07-11 08:45:00,72.0,62.0,30.13,SW,219,5.0,11.0,72,0.00,,,0.00,,2013-07-11 13:45:00,
2013-07-11 08:53:00,73.0,63.0,30.14,WSW,257,6.0,8.0,72,0.00,,,0.00,,2013-07-11 13:53:00,
2013-07-11 09:04:00,73.0,63.0,30.14,WSW,254,6.0,8.0,71,0.00,,,0.00,,2013-07-11 14:04:00,
2013-07-11 09:14:00,74.0,64.0,30.14,SW,215,2.0,8.0,72,0.00,,,0.00,,2013-07-11 14:14:00,
2013-07-11 09:23:00,75.0,64.0,30.13,ESE,117,2.0,8.0,69,0.00,,,0.00,,2013-07-11 14:23:00,
2013-07-11 09:35:00,75.0,63.0,30.13,South,179,1.0,6.0,67,0.00,,,0.00,,2013-07-11 14:35:00,
2013-07-11 09:45:00,76.0,63.0,30.13,SE,130,5.0,8.0,65,0.00,,,0.00,,2013-07-11 14:45:00,
2013-07-11 10:04:00,78.0,64.0,30.12,SE,125,6.0,9.0,62,0.00,,,0.00,,2013-07-11 15:04:00,
2013-07-11 10:12:00,79.0,65.0,30.11,ESE,121,6.0,9.0,62,0.00,,,0.00,,2013-07-11 15:12:00,
2013-07-11 10:23:00,79.0,64.0,30.11,SSE,161,6.0,11.0,60,0.00,,,0.00,,2013-07-11 15:23:00,
2013-07-11 10:35:00,80.0,64.0,30.11,SSE,160,8.0,12.0,59,0.00,,,0.00,,2013-07-11 15:35:00,
2013-07-11 10:45:00,81.0,65.0,30.10,SE,128,7.0,11.0,58,0.00,,,0.00,,2013-07-11 15:45:00,
2013-07-11 11:04:00,81.0,64.0,30.09,ESE,119,10.0,16.0,56,0.00,,,0.00,,2013-07-11 16:04:00,
2013-07-11 11:13:00,82.0,64.0,30.08,SE,143,10.0,13.0,54,0.00,,,0.00,,2013-07-11 16:13:00,
2013-07-11 11:34:00,83.0,64.0,30.07,ESE,121,14.0,19.0,52,0.00,,,0.00,,2013-07-11 16:34:00,
2013-07-11 11:44:00,83.0,64.0,30.07,ESE,119,12.0,20.0,52,0.00,,,0.00,,2013-07-11 16:44:00,
2013-07-11 11:54:00,84.0,64.0,30.06,SE,136,12.0,17.0,51,0.00,,,0.00,,2013-07-11 16:54:00,
2013-07-11 12:02:00,83.0,63.0,30.06,SE,138,14.0,23.0,51,0.00,,,0.00,,2013-07-11 17:02:00,
2013-07-11 12:13:00,84.0,63.0,30.06,ESE,121,14.0,21.0,50,0.00,,,0.00,,2013-07-11 17:13:00,
2013-07-11 12:25:00,84.0,63.0,30.06,SE,143,12.0,20.0,50,0.00,,,0.00,,2013-07-11 17:25:00,
2013-07-11 12:36:00,85.0,64.0,30.06,ESE,123,11.0,18.0,50,0.00,,,0.00,,2013-07-11 17:36:00,
2013-07-11 12:52:00,86.0,65.0,30.08,SSE,161,10.0,15.0,50,0.00,,,0.00,,2013-07-11 17:52:00,
2013-07-11 13:03:00,86.0,66.0,30.07,SE,144,7.0,16.0,51,0.00,,,0.00,,2013-07-11 18:03:00,
2013-07-11 13:14:00,85.0,65.0,30.07,SSE,157,10.0,17.0,51,0.00,,,0.00,,2013-07-11 18:14:00,
2013-07-11 13:22:00,86.0,67.0,30.06,South,179,8.0,14.0,53,0.00,,,0.00,,2013-07-11 18:22:00,
2013-07-11 13:35:00,86.0,66.0,30.06,SE,140,9.0,13.0,51,0.00,,,0.00,,2013-07-11 18:35:00,
2013-07-11 13:45:00,86.0,67.0,30.06,ESE,115,8.0,14.0,53,0.00,,,0.00,,2013-07-11 18:45:00,
2013-07-11 13:53:00,86.0,66.0,30.05,ESE,108,8.0,17.0,51,0.00,,,0.00,,2013-07-11 18:53:00,
2013-07-11 14:03:00,87.0,66.0,30.05,ESE,117,8.0,13.0,50,0.00,,,0.00,,2013-07-11 19:03:00,
2013-07-11 14:23:00,88.0,66.0,30.04,South,170,8.0,14.0,49,0.00,,,0.00,,2013-07-11 19:23:00,
2013-07-11 14:36:00,87.0,67.0,30.04,ESE,120,7.0,13.0,51,0.00,,,0.00,,2013-07-11 19:36:00,
2013-07-11 14:44:00,88.0,67.0,30.04,ESE,112,6.0,12.0,50,0.00,,,0.00,,2013-07-11 19:44:00,
2013-07-11 15:03:00,88.0,66.0,30.03,ESE,104,9.0,14.0,48,0.00,,,0.00,,2013-07-11 20:03:00,
2013-07-11 15:12:00,88.0,66.0,30.03,East,88,7.0,10.0,48,0.00,,,0.00,,2013-07-11 20:12:00,
2013-07-11 15:25:00,88.0,66.0,30.03,ESE,115,8.0,15.0,49,0.00,,,0.00,,2013-07-11 20:25:00,
2013-07-11 15:36:00,89.0,67.0,30.03,ESE,116,6.0,14.0,48,0.00,,,0.00,,2013-07-11 20:36:00,
2013-07-11 15:46:00,89.0,66.0,30.03,SE,126,10.0,15.0,47,0.00,,,0.00,,2013-07-11 20:46:00,
2013-07-11 15:53:00,89.0,65.0,30.03,SE,144,9.0,15.0,46,0.00,,,0.00,,2013-07-11 20:53:00,
2013-07-11 16:04:00,89.0,66.0,30.03,SE,144,9.0,14.0,47,0.00,,,0.00,,2013-07-11 21:04:00,
2013-07-11 16:13:00,89.0,66.0,30.02,SE,132,8.0,14.0,47,0.00,,,0.00,,2013-07-11 21:13:00,
2013-07-11 16:23:00,89.0,66.0,30.02,ESE,106,7.0,14.0,47,0.00,,,0.00,,2013-07-11 21:23:00,
2013-07-11 16:33:00,89.0,66.0,30.02,SE,132,9.0,15.0,47,0.00,,,0.00,,2013-07-11 21:33:00,
2013-07-11 16:44:00,90.0,66.0,30.02,ESE,120,7.0,14.0,45,0.00,,,0.00,,2013-07-11 21:44:00,
2013-07-11 16:54:00,89.0,65.0,30.01,East,100,8.0,12.0,46,0.00,,,0.00,,2013-07-11 21:54:00,
2013-07-11 17:04:00,89.0,65.0,30.01,SE,124,8.0,16.0,45,0.00,,,0.00,,2013-07-11 22:04:00,
2013-07-11 17:14:00,89.0,64.0,30.01,ESE,106,8.0,13.0,44,0.00,,,0.00,,2013-07-11 22:14:00,
2013-07-11 17:23:00,89.0,65.0,30.01,East,101,7.0,14.0,45,0.00,,,0.00,,2013-07-11 22:23:00,
2013-07-11 17:32:00,89.0,65.0,30.01,SE,132,9.0,14.0,45,0.00,,,0.00,,2013-07-11 22:32:00,
2013-07-11 17:45:00,89.0,64.0,30.00,SE,124,8.0,13.0,44,0.00,,,0.00,,2013-07-11 22:45:00,
2013-07-11 17:54:00,89.0,64.0,30.01,ESE,114,10.0,17.0,44,0.00,,,0.00,,2013-07-11 22:54:00,
2013-07-11 18:04:00,89.0,65.0,30.00,ESE,112,7.0,14.0,45,0.00,,,0.00,,2013-07-11 23:04:00,
2013-07-11 18:13:00,89.0,64.0,29.99,ESE,111,9.0,13.0,44,0.00,,,0.00,,2013-07-11 23:13:00,
2013-07-11 18:23:00,88.0,63.0,29.99,ESE,106,9.0,15.0,44,0.00,,,0.00,,2013-07-11 23:23:00,
2013-07-11 18:46:00,88.0,64.0,29.98,ESE,114,8.0,16.0,45,0.00,,,0.00,,2013-07-11 23:46:00,
2013-07-11 18:54:00,88.0,63.0,29.98,ESE,103,9.0,16.0,44,0.00,,,0.00,,2013-07-11 23:54:00,
2013-07-11 19:03:00,88.0,64.0,29.98,ENE,61,8.0,15.0,45,0.00,,,0.00,,2013-07-12 00:03:00,
2013-07-11 19:13:00,87.0,63.0,29.98,ESE,121,9.0,15.0,45,0.00,,,0.00,,2013-07-12 00:13:00,
2013-07-11 19:23:00,87.0,63.0,29.98,East,96,8.0,15.0,45,0.00,,,0.00,,2013-07-12 00:23:00,
2013-07-11 19:34:00,87.0,62.0,29.98,SE,130,7.0,13.0,44,0.00,,,0.00,,2013-07-12 00:34:00,
2013-07-11 19:43:00,86.0,61.0,29.98,ESE,105,8.0,14.0,43,0.00,,,0.00,,2013-07-12 00:43:00,
2013-07-11 19:54:00,86.0,61.0,29.98,ESE,105,7.0,12.0,43,0.00,,,0.00,,2013-07-12 00:54:00,
2013-07-11 20:02:00,86.0,61.0,29.98,ESE,103,10.0,14.0,43,0.00,,,0.00,,2013-07-12 01:02:00,
2013-07-11 20:12:00,85.0,61.0,29.98,ESE,110,7.0,10.0,44,0.00,,,0.00,,2013-07-12 01:12:00,
2013-07-11 20:44:00,84.0,62.0,29.97,ESE,121,4.0,8.0,47,0.00,,,0.00,,2013-07-12 01:44:00,
2013-07-11 20:55:00,83.0,62.0,29.98,ESE,114,2.0,5.0,49,0.00,,,0.00,,2013-07-12 01:55:00,
2013-07-11 21:04:00,82.0,62.0,29.98,SE,138,2.0,5.0,51,0.00,,,0.00,,2013-07-12 02:04:00,
2013-07-11 21:15:00,81.0,62.0,29.98,ESE,121,2.0,5.0,52,0.00,,,0.00,,2013-07-12 02:15:00,
2013-07-11 21:24:00,80.0,62.0,29.98,SE,135,2.0,4.0,54,0.00,,,0.00,,2013-07-12 02:24:00,
2013-07-11 21:35:00,79.0,61.0,29.98,SE,132,2.0,4.0,55,0.00,,,0.00,,2013-07-12 02:35:00,
2013-07-11 21:43:00,79.0,61.0,29.99,SE,136,2.0,5.0,55,0.00,,,0.00,,2013-07-12 02:43:00,
2013-07-11 21:52:00,78.0,61.0,29.99,SE,135,2.0,4.0,55,0.00,,,0.00,,2013-07-12 02:52:00,
2013-07-11 22:02:00,78.0,61.0,30.00,SE,134,3.0,7.0,56,0.00,,,0.00,,2013-07-12 03:02:00,
2013-07-11 22:13:00,78.0,61.0,30.00,SE,134,5.0,8.0,56,0.00,,,0.00,,2013-07-12 03:13:00,
2013-07-11 22:23:00,77.0,60.0,30.00,SE,129,3.0,5.0,56,0.00,,,0.00,,2013-07-12 03:23:00,
2013-07-11 22:35:00,77.0,61.0,30.00,ESE,106,3.0,7.0,57,0.00,,,0.00,,2013-07-12 03:35:00,
2013-07-11 22:43:00,77.0,61.0,30.00,SE,133,3.0,6.0,57,0.00,,,0.00,,2013-07-12 03:43:00,
2013-07-11 22:53:00,77.0,60.0,30.00,SE,142,4.0,8.0,56,0.00,,,0.00,,2013-07-12 03:53:00,
2013-07-11 23:01:00,77.0,60.0,30.00,SSE,162,4.0,9.0,56,0.00,,,0.00,,2013-07-12 04:01:00,
2013-07-11 23:11:00,77.0,60.0,30.01,SE,136,5.0,9.0,56,0.00,,,0.00,,2013-07-12 04:11:00,
2013-07-11 23:21:00,76.0,59.0,30.00,SE,143,4.0,10.0,56,0.00,,,0.00,,2013-07-12 04:21:00,
2013-07-11 23:32:00,76.0,60.0,30.00,SE,129,4.0,9.0,57,0.00,,,0.00,,2013-07-12 04:32:00,
2013-07-11 23:43:00,76.0,60.0,30.00,SSE,167,4.0,9.0,58,0.00,,,0.00,,2013-07-12 04:43:00,
2013-07-11 23:53:00,76.0,60.0,30.01,SSE,152,5.0,11.0,58,0.00,,,0.00,,2013-07-12 04:53:00,